Location: Plymouth
(43.7490°N, 87.9770°W)
Time: 12:41:40
(UTC-05:00)

Daily predictions for brighter satellites

Satellite Brightness Start Highest point End
(mag) Time Altitude Azimuth Time Altitude Azimuth Time Altitude Azimuth
Okean 1 3.7 20:46:21 10° SSW 20:50:18 71° W 20:54:16 10° N
Cosmos 1536 Rocket 3.5 20:46:13 10° S 20:50:29 66° E 20:54:47 10° NNE
RESURS DK-1 3.3 20:46:27 10° SW 20:50:30 54° WNW 20:54:35 10° NNE
Iridium 4 Rocket 4.0 20:46:19 10° N 20:51:16 66° W 20:56:39 10° S
Cosmos 1441 Rocket 4.5 20:48:50 10° SE 20:51:44 22° E 20:54:40 10° NE
Cosmos 1975 3.3 20:49:53 10° NNW 20:53:56 67° W 20:57:59 10° S
Cosmos 2315 Rocket 4.4 20:49:10 10° SSW 20:55:25 74° W 21:01:47 10° N
ASTEX 1 4.1 20:50:55 10° SE 20:55:25 37° ENE 20:59:55 10° N
Aureole 3 Rocket 3.9 20:51:10 10° SSE 20:57:25 50° E 21:01:57 10° NNE
Cosmos 2074 Rocket 4.2 20:51:16 10° N 20:57:27 60° E 21:03:38 10° SSE
Cosmos 2184 Rocket 4.2 20:52:08 10° N 20:58:26 59° E 21:04:37 10° SSE
ARGOS 4.3 20:55:25 10° ESE 20:59:58 28° ENE 21:04:32 10° N
Envisat 3.2 20:54:54 10° S 20:59:59 80° WSW 21:05:06 10° NNW
Meteor 1-13 Rocket 4.4 20:55:19 10° S 21:01:11 64° E 21:07:02 10° NNE
Cosmos 405 4.2 20:59:15 10° NNE 21:02:19 26° ENE 21:05:22 10° SE
COSMOS 2406 3.3 20:59:31 10° S 21:05:08 60° ESE 21:10:45 10° NNE
ISS -2.7 21:02:49 10° SSW 21:05:32 24° SE 21:08:15 10° E
CZ-3A R/B 2.5 21:05:15 10° S 21:07:27 13° SSE 21:08:35 11° SE
OAO 2 Rocket 4.3 21:07:04 10° SW 21:11:18 29° S 21:15:28 10° ESE
Cosmos 1939 Rocket 3.1 21:08:28 10° S 21:12:18 68° WSW 21:16:11 10° NNW
CZ-4B DEB 3.0 21:09:20 10° S 21:12:18 63° W 21:15:17 10° NNW
Cosmos 2082 Rocket 4.1 21:13:41 10° ESE 21:14:37 10° E 21:15:33 10° E
Cosmos 1743 2.9 21:11:08 10° N 21:15:02 78° W 21:18:55 10° S
Cosmos 1025 Rocket 3.7 21:11:42 10° SSE 21:15:33 34° E 21:19:24 10° NNE
Helios 1B rocket 2.8 21:11:44 10° N 21:15:51 70° WNW 21:19:57 10° SSW
NOSS 2-2 (E) 3.8 21:13:27 10° SW 21:17:29 74° NW 21:22:18 10° NE
Resurs 01 Rocket 4.1 21:15:36 10° SW 21:18:56 21° W 21:22:18 10° NW
COSMOS 2455 4.1 21:13:54 10° NW 21:19:23 37° WSW 21:24:49 10° S
Cosmos 1437 4.0 21:18:40 10° SSW 21:21:47 44° WNW 21:24:54 10° N
MetOp-B 4.4 21:18:59 11° SSE 21:24:02 55° ENE 21:29:16 10° N
Cosmos 1371 Rocket 4.4 21:23:44 10° NNW 21:28:57 52° ENE 21:33:10 15° SE
DEBRIS 3.9 21:26:58 10° SW 21:30:32 79° SSE 21:43:08 10° ENE
Intercosmos 24 4.0 21:28:00 10° N 21:31:59 51° ENE 21:34:34 17° SSE
Nadezhda 1 Rocket 4.0 21:26:43 10° S 21:33:02 76° E 21:39:27 10° N
Cosmos 923 Rocket 4.4 21:28:18 10° SSW 21:33:37 69° WNW 21:38:55 10° NNE
Cosmos 1697 Rocket 4.4 21:32:10 10° N 21:36:15 20° NE 21:40:20 10° E
Cosmos 1437 Rocket 3.2 21:35:16 10° N 21:38:57 44° ENE 21:41:21 20° SE
Meteor 2-9 Rocket 4.2 21:35:18 10° N 21:40:47 87° W 21:46:13 11° S
Cosmos 2154 Rocket 4.1 21:35:54 10° N 21:42:15 70° E 21:47:47 14° SSE
Cosmos 1666 3.3 21:39:11 10° NNW 21:42:51 52° W 21:46:30 10° S
H-2A R/B 3.9 21:41:36 13° ESE 21:44:10 20° ENE 21:47:28 10° NNE
Cosmos 192 4.3 21:41:27 10° SSW 21:46:22 86° ESE 21:51:18 10° NNE
ERS-1 Rocket 3.2 21:41:29 10° S 21:46:28 69° WSW 21:51:30 10° NNW
OE (NEXTSAT) 4.5 21:43:03 10° WNW 21:46:38 77° NNE 21:49:11 18° E
PSLV R/B 3.5 21:44:43 10° W 21:47:43 43° S 21:48:57 27° SE
SL-08 RB Rocket 3.9 21:46:39 19° SE 21:49:40 56° ENE 21:54:03 10° N
Meteor 2-4 Rocket 4.0 21:46:33 10° SSW 21:52:10 74° WNW 21:58:00 10° N
Okean 2 3.3 21:51:27 14° S 21:54:51 72° E 21:58:57 10° NNE
Aureole 1 Rocket 3.1 21:52:10 10° SW 21:55:23 49° WNW 21:58:19 10° N
Cosmos 1833 Rocket 3.9 21:54:08 20° SE 21:55:53 23° E 22:00:09 10° NE
YAOGAN 6 4.3 21:53:50 10° SSW 21:56:53 28° W 21:59:59 10° NW
Meteor 2-19 Rocket 4.5 21:50:57 10° N 21:57:05 69° E 22:01:35 19° SSE
CENTAUR R/B 4.0 21:55:26 10° NW 22:02:48 42° WSW 22:10:10 11° S
Meteor 1-4 Rocket 4.1 22:01:20 10° NNE 22:04:10 21° ENE 22:05:02 19° E
H-2A R/B 2.1 22:02:16 23° SSE 22:05:15 62° ENE 22:10:14 10° N
Landsat 7 4.2 22:04:53 25° SE 22:07:24 49° ENE 22:11:59 10° N
Cosmos 967 Rocket 4.5 22:01:37 10° SSW 22:07:43 58° ESE 22:13:51 10° NE
Lacrosse 5 rocket 4.3 22:08:45 10° NW 22:11:35 16° N 22:14:24 10° NE
Cosmos 2341 Rocket 4.0 22:05:36 10° N 22:11:58 85° E 22:16:33 20° S
Okean 1-7 Rocket 4.4 22:08:16 10° SSW 22:12:35 50° WNW 22:16:59 10° N
Cosmos 1624 Rocket 4.0 22:07:30 10° NNW 22:12:48 82° WSW 22:16:02 24° SSE
Cosmos 1515 3.6 22:12:23 27° S 22:14:21 76° E 22:18:09 10° NNE
SPOT 5 2.8 22:11:38 22° S 22:14:22 66° WSW 22:18:43 10° NNW
DMSP B5D2-2 4.4 22:12:36 10° NNE 22:17:44 48° E 22:20:16 27° SSE
SL-27 R/B 4.3 22:14:55 10° SW 22:18:14 32° WNW 22:21:36 10° N
Cosmos 2228 3.1 22:14:04 10° N 22:18:20 59° E 22:20:02 34° SE
Cosmos 1892 Rocket 3.5 22:18:38 22° S 22:21:27 87° E 22:25:53 10° N
Tiangong 2 1.0 22:18:35 10° WSW 22:21:43 58° SSE 22:21:52 57° SSE
Terra 2.3 22:20:24 29° SE 22:22:27 48° ENE 22:27:03 10° N
Cosmos 921 Rocket 3.0 22:18:36 10° NNW 22:23:08 83° ENE 22:25:01 34° SSE
Cosmos 1980 Rocket 3.6 22:19:01 10° N 22:23:49 27° NE 22:27:03 16° E
Cosmos 2218 Rocket 4.1 22:20:35 10° N 22:26:39 58° ENE 22:29:46 29° SE
Cosmos 1602 Rocket 4.3 22:27:27 31° ESE 22:28:12 33° E 22:32:06 10° NNE
deb Chang Zheng 4 4.1 22:26:45 10° NNE 22:30:49 38° E 22:31:31 36° ESE
Cosmos 2056 Rocket 3.8 22:26:36 10° NNW 22:31:42 59° WSW 22:34:24 27° S
TELKOM 3 3.7 22:29:20 10° WNW 22:31:49 66° NNE 22:32:20 52° E
Cosmos 2322 Rocket 4.5 22:29:21 10° N 22:32:19 14° NE 22:35:16 10° ENE
Cosmos 1606 Rocket 4.3 22:29:25 10° NNW 22:33:33 46° W 22:36:00 22° SSW
CZ-4B R/B 4.2 22:32:46 10° NNE 22:37:22 34° E 22:38:21 31° ESE
USA 245 4.3 22:37:19 20° WSW 22:37:46 21° W 22:39:43 10° NW
ARGOS 4.1 22:36:13 17° SSW 22:40:00 42° W 22:45:09 10° NNW
ISS -2.9 22:38:38 10° WSW 22:41:52 50° NNW 22:45:05 10° NE
Cosmos 1726 Rocket 4.4 22:39:58 10° NNW 22:44:05 43° W 22:46:13 24° SSW
Cosmos 2181 Rocket 4.2 22:40:12 16° SSW 22:45:27 71° W 22:51:46 10° N
Meteor 1-22 Rocket 4.2 22:42:53 10° N 22:48:09 63° ENE 22:50:03 39° SE
Cosmos 1809 Rocket 4.4 22:42:34 10° N 22:48:41 79° E 22:51:26 35° SSE
COSMOS 2487 2.5 22:48:51 48° SW 22:49:44 75° WNW 22:53:20 10° NNE
Cosmos 1420 Rocket 4.2 22:46:45 10° NNW 22:51:58 58° ENE 22:53:43 38° SE
Cosmos 2058 Rocket 3.8 22:49:12 10° NNW 22:53:27 47° W 22:55:15 30° SSW
CARTOSAT-1 3.5 22:53:33 48° S 22:54:43 80° WSW 22:59:04 10° NNW
Cosmos 2278 4.0 22:49:31 10° NNW 22:55:09 61° WSW 22:57:30 34° S
Cosmos 1048 Rocket 4.5 22:56:34 38° ESE 22:57:07 39° ESE 23:01:54 10° NE
Cosmos 2082 Rocket 2.1 22:54:38 28° SSW 22:57:42 78° ESE 23:03:22 10° NNE
CZ-4C R/B 3.9 22:58:39 37° ENE 22:58:39 37° ENE 23:01:59 10° N
PSLV R/B 3.8 23:02:39 48° NNW 23:02:39 48° NNW 23:04:48 10° NNW
Cosmos 1452 Rocket 3.5 22:58:39 10° NNW 23:03:55 76° WSW 23:05:36 44° S
CZ-2C R/B 4.3 23:03:20 10° NE 23:07:18 19° E 23:07:38 19° E
Meteor 2-16 Rocket 4.4 23:03:47 10° N 23:09:56 75° E 23:12:08 42° SSE
CZ-4 R/B 3.8 23:07:58 10° NNE 23:13:02 85° ESE 23:14:33 47° S
Cosmos 2369 4.5 23:08:41 10° NW 23:14:04 43° WSW 23:16:08 31° SSW
Cosmos 1842 3.4 23:19:04 58° ENE 23:19:04 58° ENE 23:22:41 10° NNE
H-2A R/B 2.9 23:18:44 38° SW 23:19:50 45° W 23:24:12 10° NNW
Cosmos 1812 Rocket 3.5 23:15:39 10° N 23:20:10 84° W 23:20:48 65° S
Cosmos 1697 Rocket 2.7 23:15:14 10° NNW 23:20:50 74° WSW 23:22:23 49° S
SL-16 R/B 3.6 23:18:17 10° N 23:23:10 29° NE 23:25:49 20° E
Iridium 2 3.6 23:22:09 10° N 23:25:48 82° N 23:25:48 82° N
Cosmos 1953 3.0 23:23:08 10° N 23:26:58 43° ENE 23:26:58 43° ENE
Cosmos 1271 Rocket 2.7 23:24:58 10° N 23:28:44 84° N 23:28:44 84° N
Cosmos 1626 Rocket 4.3 23:30:45 36° WSW 23:31:54 45° WNW 23:36:05 10° N
USA 267 3.2 23:26:43 10° NE 23:33:11 61° SE 23:35:59 35° SSW
Cosmos 1656 4.5 23:31:30 10° NW 23:36:30 38° WSW 23:37:48 33° SW
Meteor 1-4 Rocket 4.4 23:36:22 10° NW 23:39:15 23° W 23:39:20 23° W
Cosmos 1833 Rocket 3.3 23:35:45 21° SW 23:39:22 55° WNW 23:44:54 10° NNE
ALOS 2 3.5 23:42:00 35° E 23:42:22 35° ENE 23:46:23 10° N
Cosmos 1953 Rocket 3.9 23:42:35 52° E 23:42:35 52° E 23:46:47 10° NNE
SeaSat 1 2.9 23:43:22 42° E 23:44:32 52° ENE 23:49:20 10° NNW
H-2A R/B 4.1 23:42:53 12° WSW 23:45:09 16° W 23:48:09 10° NW
Cosmos 1825 Rocket 3.4 23:45:22 78° E 23:45:22 78° E 23:49:38 10° N
Cosmos 1733 4.3 23:43:20 10° N 23:46:26 36° ENE 23:46:26 36° ENE
Cosmos 1766 4.5 23:48:34 10° NNW 23:52:04 32° W 23:52:04 32° W
Lacrosse 5 rocket 3.5 23:48:12 10° NNW 23:52:12 27° NNE 23:55:36 13° E
